[[{"header":{"parameterUnit":"m.s-1","parameterCategory":1,"la1":30.2992,"la2":30.254,"lo1":-89.0895,"lo2":-89.0443,"dy":0.0025,"dx":0.0025,"nx":19,"ny":19,"refTime":"2026-04-24T09:00:00:Z","depth":0,"parameterNumber":2,"parameterNumberName":"U-component_of_WINDS"},"data":[0,0,0,-2.9439,-2.9442,-2.9596,-2.9596,-2.9788,-2.9789,0,0,0,0,0,0,0,0,0,0,0,-2.939,-2.9391,-2.9439,-2.9442,-2.9596,-2.9597,-2.9787,-2.9789,0,0,0,0,0,0,0,0,0,0,0,-2.9389,-2.939,-2.9392,-2.9443,-2.9596,-2.9597,-2.9787,-2.9673,0,0,0,0,0,0,0,0,0,0,-2.9525,-2.9475,-2.939,-2.9392,-2.9444,-2.9595,-2.9597,-2.9668,-2.968,-2.9715,0,-2.9745,0,-2.977,-2.9802,-2.9802,0,0,0,-2.9446,-2.9465,-2.951,-2.9392,-2.9445,-2.9595,-2.9527,-2.9675,-2.9689,-2.9732,-2.9748,-2.9755,-2.9773,-2.9803,-2.9804,-2.9995,-2.9995,0,0,-2.9437,-2.9415,-2.95,-2.9519,-2.9494,-2.9523,-2.9532,-2.9683,-2.97,-2.9749,-2.976,-2.9776,-2.9804,-2.9805,-2.9994,-2.9995,0,0,0,-2.9411,-2.9409,-2.9451,-2.9511,-2.9539,-2.9527,-2.9538,-2.9693,-2.9708,-2.9762,-2.9779,-2.9805,-2.9807,-2.9993,-2.9994,-3.0008,0,0,0,-2.9406,-2.9394,-2.9447,-2.9435,-2.9536,-2.9618,-2.9544,-2.9698,-2.9715,-2.9778,-2.9805,-2.9809,-2.9992,-2.9994,-3.0006,-3.0018,0,0,0,-2.9381,-2.9391,-2.9412,-2.9433,-2.9499,-2.9616,-2.964,-2.9702,-2.9726,-2.9802,-2.981,-2.9992,-2.9994,-3.0004,-3.0015,-3.0061,0,0,0,-2.9348,-2.9423,-2.9412,-2.9502,-2.9497,-2.9623,-2.9639,-2.9735,-2.9802,-2.9806,-2.9993,-2.9994,-3.0004,-3.0014,-3.0059,-3.0094,-3.0107,0,0,-2.9431,-2.9432,-2.9487,-2.9481,-2.9604,-2.9602,-2.9727,-2.981,-2.9838,-2.9941,-2.9946,-3.0007,-3.0015,-3.006,-3.0191,-3.0201,0,0,0,-2.9506,-2.9545,-2.9582,-2.9645,-2.971,-2.9766,-2.9833,-2.9864,-2.9952,-2.9886,-3.0038,-3.0043,-3.0071,-3.0088,-3.0097,-3.0121,-3.0002,-3.0002,-3.0002,-2.959,-2.9621,-2.9713,-2.9763,-2.9824,-2.9891,-2.9944,-2.9997,-3.0012,-3.0047,-3.0077,-3.0152,-3.0172,-3.0179,-3.0204,-3.0099,-3.01,-3.01,-3.01,-2.9712,-2.9771,-2.9788,-2.9883,-2.9916,-2.9997,-3.0066,-3.0073,-3.0153,-3.0132,-3.0158,-3.013,-3.0189,-3.0212,-3.0101,-3.0101,-3.0101,-3.0101,-3.01,-2.9768,-2.9802,-2.9838,-2.9932,-3.0001,-3.005,-3.0125,-3.0153,-3.018,-3.0206,-3.024,-3.024,-3.0242,-3.0221,-3.0221,-3.0221,-3.0221,-3.0222,-3.0222,-2.9812,-2.9853,-2.9912,-2.9988,-3.0031,-3.0092,-3.0162,-3.0206,-3.0262,-3.0276,-3.0277,-3.0286,-3.0189,-3.0163,-3.0226,-3.0225,-3.0225,-3.0224,-3.0224,-2.9921,-2.9901,-2.9993,-3.0037,-3.0127,-3.0193,-3.0228,-3.0316,-3.0357,-3.0393,-3.0399,-3.0323,-3.0326,-3.032,-3.0298,-3.0392,-3.0392,-3.0392,-3.0392,-2.9968,-2.9973,-3.0073,-3.014,-3.0211,-3.0251,-3.0355,-3.041,-3.0463,-3.0491,-3.0482,-3.0456,-3.0448,-3.0457,-3.0447,-3.0427,-3.0552,-3.0552,-3.0553,-3.0035,-3.0048,-3.013,-3.0181,-3.0254,-3.0316,-3.0414,-3.0492,-3.0549,-3.056,-3.0512,-3.0505,-3.0465,-3.045,-3.0457,-3.0441,-3.0406,0,0]},{"header":{"parameterUnit":"m.s-1","parameterCategory":1,"la1":30.2992,"la2":30.254,"lo1":-89.0895,"lo2":-89.0443,"dy":0.0025,"dx":0.0025,"nx":19,"ny":19,"refTime":"2026-04-24T09:00:00:Z","depth":0,"parameterNumber":3,"parameterNumberName":"V-component_of_WINDS"},"data":[0,0,0,3.6197,3.6199,3.6286,3.6286,3.6397,3.6398,0,0,0,0,0,0,0,0,0,0,0,3.6173,3.6174,3.6197,3.6199,3.6286,3.6286,3.6397,3.6398,0,0,0,0,0,0,0,0,0,0,0,3.6173,3.6174,3.6175,3.62,3.6286,3.6286,3.6397,3.6331,0,0,0,0,0,0,0,0,0,0,3.6246,3.6226,3.6173,3.6175,3.62,3.6286,3.6286,3.6328,3.6335,3.6359,0,3.6381,0,3.6392,3.6406,3.6406,0,0,0,3.6197,3.622,3.6242,3.6175,3.6201,3.6286,3.6246,3.6332,3.634,3.6368,3.6383,3.6387,3.6394,3.6407,3.6407,3.6553,3.6553,0,0,3.6193,3.6189,3.6237,3.6248,3.6236,3.6243,3.6249,3.6337,3.6352,3.6383,3.639,3.6395,3.6407,3.6408,3.6552,3.6553,0,0,0,3.618,3.6186,3.6206,3.6243,3.6259,3.6246,3.6252,3.6348,3.6355,3.6391,3.6397,3.6408,3.6409,3.6551,3.6552,3.6587,0,0,0,3.6177,3.6179,3.6204,3.6202,3.6258,3.6305,3.6262,3.6349,3.6359,3.6396,3.6408,3.6411,3.655,3.6552,3.6584,3.6603,0,0,0,3.6167,3.6177,3.6191,3.6202,3.624,3.6304,3.6316,3.6351,3.6363,3.6406,3.6411,3.655,3.6551,3.6582,3.6599,3.6641,0,0,0,3.6154,3.6219,3.6191,3.6266,3.6239,3.6325,3.6315,3.6379,3.6421,3.6409,3.655,3.6552,3.6581,3.6597,3.6638,3.6674,3.669,0,0,3.6234,3.6229,3.6273,3.6251,3.6341,3.6312,3.6407,3.6448,3.6454,3.6519,3.6523,3.6585,3.6599,3.664,3.6776,3.6788,0,0,0,3.6297,3.6329,3.6354,3.6394,3.6428,3.6459,3.6485,3.6501,3.6556,3.6488,3.6611,3.662,3.6644,3.6661,3.6672,3.6692,3.656,3.656,3.656,3.6404,3.6411,3.6485,3.6502,3.6541,3.6569,3.6601,3.6626,3.6619,3.6648,3.6667,3.6749,3.677,3.6778,3.6799,3.6688,3.6688,3.6688,3.6688,3.6522,3.6568,3.6559,3.6628,3.6634,3.6691,3.672,3.6714,3.6767,3.6736,3.6757,3.6722,3.6791,3.681,3.6691,3.669,3.669,3.669,3.6689,3.6592,3.6615,3.6634,3.6694,3.6739,3.6753,3.6805,3.6808,3.6811,3.6833,3.6853,3.6852,3.6852,3.6842,3.6843,3.6843,3.6843,3.6843,3.6844,3.6658,3.6678,3.6722,3.6764,3.6791,3.6826,3.6855,3.6881,3.691,3.6908,3.6908,3.6899,3.6797,3.6771,3.6848,3.6847,3.6847,3.6846,3.6846,3.6773,3.6748,3.6816,3.6843,3.6893,3.6937,3.6941,3.6994,3.7015,3.7041,3.7027,3.6952,3.6945,3.6937,3.6916,3.7026,3.7026,3.7026,3.7026,3.6832,3.683,3.6901,3.6944,3.6986,3.6997,3.7072,3.7096,3.7115,3.7129,3.7113,3.7085,3.7077,3.7076,3.7065,3.7044,3.7185,3.7185,3.7186,3.6903,3.6905,3.697,3.699,3.703,3.7063,3.7134,3.7183,3.7199,3.7192,3.7139,3.7133,3.7087,3.7072,3.7063,3.7045,3.7008,0,0]}]]